Location: Karcze
(52.0945°N, 22.4786°E)
Time: 11:46:20
(UTC+00:00)

Cosmos 192 - Pass Details

Date: 14 July 2020
Orbit: 702 x 712 km, 74.0° (Epoch: 08 August)

Event Time Altitude Azimuth Distance (km) Brightness Sun altitude
Rises 01:01:21 0° 332° (NNW) 3,107 8.1 -9.7°
Reaches altitude 10° 01:03:42 10° 328° (NNW) 2,183 7.2 -9.5°
Maximum altitude 01:08:31 57° 251° (WSW) 831 4.4 -9.1°
Drops below altitude 10° 01:13:18 10° 173° (S) 2,165 6.4 -8.7°
Sets 01:15:38 0° 170° (S) 3,078 7.2 -8.5°
